Location: Lecco
(45.8566°N, 9.3977°E)
Time: 18:50:21
(UTC+02:00)

A-11 Canister half - All Passes

Search period start: 22 July 2019 00:00
Search period end: 01 August 2019 00:00
Orbit: 1526 x 1683 km, 47.3° (Epoch: 21 July)

Date Brightness Start Highest point End Pass type
(mag) Time Alt. Az. Time Alt. Az. Time Alt. Az.
22 Jul - 00:12:43 10° W 00:22:44 83° N 00:32:26 10° E visible
22 Jul - 02:18:16 10° WNW 02:28:07 84° SSW 02:37:37 10° ESE visible
22 Jul - 04:23:41 10° WNW 04:32:28 41° SW 04:41:00 10° SSE visible
22 Jul - 06:34:46 10° WSW 06:35:17 10° WSW 06:35:49 10° WSW daylight
22 Jul - 19:44:26 10° S 19:52:09 26° SE 19:59:45 10° E daylight
22 Jul - 21:46:04 10° SW 21:55:59 65° SSE 22:05:39 10° ENE visible
22 Jul - 23:51:02 10° W 00:01:05 84° N 00:10:48 10° E visible
23 Jul - 01:56:36 10° WNW 02:06:29 86° SSW 02:16:01 10° ESE visible
23 Jul - 04:02:00 10° WNW 04:10:54 43° SW 04:19:32 10° SSE visible
23 Jul - 06:11:23 10° WSW 06:13:47 11° WSW 06:16:10 10° SW daylight
23 Jul - 19:23:05 10° S 19:30:35 24° SE 19:38:00 10° E daylight
23 Jul - 21:24:27 10° SW 21:34:21 63° SSE 21:44:00 10° ENE visible
23 Jul - 23:29:21 10° W 23:39:25 84° N 23:49:10 10° E visible
24 Jul - 01:34:56 10° WNW 01:44:51 87° SSW 01:54:24 10° ESE visible
24 Jul - 03:40:19 10° WNW 03:49:20 45° SW 03:58:04 10° SSE visible
24 Jul - 05:48:58 10° W 05:52:17 12° WSW 05:55:35 10° SW daylight
24 Jul - 19:01:44 10° S 19:09:01 23° SE 19:16:14 10° E daylight
24 Jul - 21:02:51 10° SW 21:12:44 62° SSE 21:22:23 10° ENE daylight
24 Jul - 23:07:39 10° W 23:17:45 85° N 23:27:31 10° E visible
25 Jul - 01:13:15 10° WNW 01:23:12 88° SSW 01:32:47 10° ESE visible
25 Jul - 03:18:38 10° WNW 03:27:45 47° SW 03:36:35 10° SSE visible
25 Jul - 05:26:45 10° W 05:30:46 13° WSW 05:34:45 10° SSW daylight
25 Jul - 18:40:25 10° S 18:47:28 22° SE 18:54:26 10° E daylight
25 Jul - 20:41:16 10° SW 20:51:06 60° SSE 21:00:44 10° ENE daylight
25 Jul - 22:45:59 10° W 22:56:06 86° N 23:05:54 10° E visible
26 Jul - 00:51:34 10° WNW 01:01:33 90° SSW 01:11:10 10° ESE visible
26 Jul - 02:56:57 10° WNW 03:06:10 49° SW 03:15:05 10° SSE visible
26 Jul - 05:04:40 10° W 05:09:16 15° WSW 05:13:48 10° SSW visible
26 Jul - 18:19:08 10° S 18:25:54 21° SE 18:32:36 10° E daylight
26 Jul - 20:19:40 10° SW 20:29:29 58° SSE 20:39:05 10° ENE daylight
26 Jul - 22:24:17 10° WSW 22:34:26 87° N 22:44:15 10° E visible
27 Jul - 00:29:53 10° WNW 00:39:54 89° NNE 00:49:33 10° ESE visible
27 Jul - 02:35:16 10° WNW 02:44:35 51° SW 02:53:35 10° SE visible
27 Jul - 04:42:40 10° W 04:47:45 16° SW 04:52:46 10° SSW visible
27 Jul - 17:57:53 10° SSE 18:04:21 19° SE 18:10:46 10° E daylight
27 Jul - 19:58:05 10° SW 20:07:52 56° SE 20:17:27 10° ENE daylight
27 Jul - 22:02:36 10° WSW 22:12:46 87° N 22:22:37 10° E visible
28 Jul - 00:08:12 10° WNW 00:18:15 88° NNE 00:27:56 10° ESE visible
28 Jul - 02:13:36 10° WNW 02:22:59 53° SW 02:32:04 10° SE visible
28 Jul - 04:20:43 10° W 04:26:13 17° SW 04:31:41 10° SSW visible
28 Jul - 17:36:39 10° SSE 17:42:48 18° SE 17:48:54 10° E daylight
28 Jul - 19:36:31 10° SW 19:46:15 54° SE 19:55:48 10° ENE daylight
28 Jul - 21:40:56 10° WSW 21:51:06 88° N 22:00:59 10° ENE visible
28 Jul - 23:46:32 10° W 23:56:35 87° NNE 00:06:18 10° ESE visible
29 Jul - 01:51:54 10° WNW 02:01:24 55° SW 02:10:33 10° SE visible
29 Jul - 03:58:48 10° W 04:04:42 18° SW 04:10:31 10° SSW visible
29 Jul - 17:15:29 10° SSE 17:21:15 17° SE 17:27:00 10° E daylight
29 Jul - 19:14:57 10° SW 19:24:38 52° SE 19:34:09 10° ENE daylight
29 Jul - 21:19:14 10° WSW 21:29:26 90° N 21:39:20 10° ENE visible
29 Jul - 23:24:50 10° W 23:34:56 86° N 23:44:40 10° E visible
30 Jul - 01:30:14 10° WNW 01:39:48 57° SW 01:49:01 10° SE visible
30 Jul - 03:36:55 10° W 03:43:11 20° SW 03:49:20 10° SSW visible
30 Jul - 16:54:21 10° SSE 16:59:43 16° SE 17:05:03 10° E daylight
30 Jul - 18:53:25 10° SSW 19:03:01 50° SE 19:12:30 10° ENE daylight
30 Jul - 20:57:34 10° WSW 21:07:46 89° SSE 21:17:42 10° ENE daylight
30 Jul - 23:03:08 10° W 23:13:16 86° N 23:23:02 10° E visible
31 Jul - 01:08:33 10° WNW 01:18:12 59° SSW 01:27:30 10° SE visible
31 Jul - 03:15:04 10° W 03:21:39 21° SW 03:28:07 10° S visible
31 Jul - 16:33:17 10° SSE 16:38:10 15° ESE 16:43:03 10° E daylight
31 Jul - 18:31:52 10° SSW 18:41:24 48° SE 18:50:50 10° ENE daylight
31 Jul - 20:35:54 10° WSW 20:46:06 88° SSE 20:56:04 10° ENE daylight
31 Jul - 22:41:28 10° W 22:51:36 85° N 23:01:24 10° E visible
